Location: Bucharest
(44.4268°N, 26.1025°E)
Time: 07:55:06
(UTC+03:00)

Oscar 19 - Pass Details

Date: 01 July 2022
Orbit: 773 x 790 km, 98.8° (Epoch: 14 August)

Event Time Altitude Azimuth Distance (km) Brightness Sun altitude
Rises 03:25:12 0° 33° (NNE) 3,260 15.7 -16.6°
Reaches altitude 10° 03:28:44 10° 58° (ENE) 2,325 14.1 -16.3°
Maximum altitude 03:31:20 14° 89° (E) 2,059 13.2 -16.0°
Drops below altitude 10° 03:33:55 10° 120° (ESE) 2,316 13.1 -15.8°
Sets 03:37:25 0° 145° (SE) 3,238 13.6 -15.5°
